DW8871 Weather Reports


Display with metric or nautical units.
time (UTC)temp
F
wind
direction
speed
MPH
gust
MPH
rain 1hr
in
rain 24hr
in
rain mn
in
humidity
%
barometer
mb
20260903013042 83 0 0.0 0.0 0.00 0.00 0.00 72 1012.1
20260903011535 84 0 0.0 0.0 0.00 0.00 0.00 69 1011.9
20260903010039 86 0 0.0 0.0 0.00 0.00 0.00 66 1011.8
20260903010015 86 256 0.0 0.0 0.00 0.00 0.00 67 1010.8
20260903004533 88 0 0.0 0.0 0.00 0.00 0.00 63 1011.7
20260903003040 90 0 0.0 0.0 0.00 0.00 0.00 58 1011.7
20260903001534 92 0 0.0 2.0 0.00 0.00 0.00 54 1011.8
20260903000039 94 0 0.0 2.0 0.00 0.00 0.00 48 1011.7
20260903000021 95 296 0.0 1.0 0.00 0.00 0.00 49 1010.7
20260902234540 95 265 0.0 4.0 0.00 0.00 0.00 46 1011.8
20260902233036 96 263 3.0 7.0 0.00 0.00 0.00 42 1011.9
20260902231548 96 269 3.0 10.0 0.00 0.00 0.00 43 1011.9
20260902230052 97 267 6.0 11.0 0.00 0.00 0.00 41 1010.9
20260902230037 97 282 7.0 12.0 0.00 0.00 0.00 40 1012.0
20260902224551 97 273 3.0 10.0 0.00 0.00 0.00 39 1011.9
20260902223048 97 294 3.0 10.0 0.00 0.00 0.00 39 1012.0
20260902221543 97 263 5.0 11.0 0.00 0.00 0.00 39 1011.9
20260902220053 97 299 4.0 11.0 0.00 0.00 0.00 40 1012.0
20260902220025 98 255 4.0 8.0 0.00 0.00 0.00 41 1010.9
20260902214535 97 227 4.0 13.0 0.00 0.00 0.00 39 1012.1
20260902213040 97 213 4.0 13.0 0.00 0.00 0.00 40 1012.2
20260902211537 97 263 6.0 12.0 0.00 0.00 0.00 43 1012.4
20260902210042 97 272 6.0 13.0 0.00 0.00 0.00 44 1012.7
20260902210022 97 263 6.0 12.0 0.00 0.00 0.00 44 1011.6
20260902204540 97 252 6.0 13.0 0.00 0.00 0.00 42 1012.8
20260902203042 97 207 5.0 15.0 0.00 0.00 0.00 42 1013.1
20260902201544 97 290 6.0 10.0 0.00 0.00 0.00 44 1013.2
20260902200037 97 318 4.0 13.0 0.00 0.00 0.00 45 1013.5
20260902200017 97 302 4.0 12.0 0.00 0.00 0.00 46 1012.3
20260902194536 97 303 5.0 14.0 0.00 0.00 0.00 45 1013.8
20260902193043 96 281 5.0 12.0 0.00 0.00 0.00 44 1013.8
20260902191536 96 310 5.0 13.0 0.00 0.00 0.00 45 1014.0
20260902190037 95 292 7.0 13.0 0.00 0.00 0.00 47 1014.1
20260902190020 96 292 7.0 12.0 0.00 0.00 0.00 47 1013.0
20260902184535 95 247 7.0 14.0 0.00 0.00 0.00 48 1014.4
20260902183041 95 277 6.0 12.0 0.00 0.00 0.00 50 1014.5
20260902181537 94 283 6.0 13.0 0.00 0.00 0.00 50 1014.7
20260902180052 94 304 5.0 11.0 0.00 0.00 0.00 51 1013.7
20260902180035 93 306 5.0 12.0 0.00 0.00 0.00 51 1014.9
20260902174538 93 348 3.0 13.0 0.00 0.00 0.00 56 1015.0
20260902173038 92 288 6.0 13.0 0.00 0.00 0.00 56 1015.1
20260902171547 92 266 6.0 11.0 0.00 0.00 0.00 55 1015.3
20260902170033 91 270 5.0 11.0 0.00 0.00 0.00 56 1015.5
20260902170016 91 290 5.0 10.0 0.00 0.00 0.00 57 1014.4
20260902164539 90 254 4.0 14.0 0.00 0.00 0.00 58 1015.6
20260902163039 90 297 4.0 13.0 0.00 0.00 0.00 58 1015.7
20260902161534 89 305 6.0 12.0 0.00 0.00 0.00 60 1015.6
20260902160053 88 275 5.0 11.0 0.00 0.00 0.00 61 1014.5
20260902160035 88 271 5.0 12.0 0.00 0.00 0.00 60 1015.6
20260902154535 87 275 7.0 12.0 0.00 0.00 0.00 61 1015.7
20260902153047 86 277 6.0 13.0 0.00 0.00 0.00 62 1015.6
20260902151535 85 5 5.0 11.0 0.00 0.00 0.00 65 1015.6
20260902150038 84 296 4.0 13.0 0.00 0.00 0.00 67 1015.7
20260902150019 84 296 4.0 12.0 0.00 0.00 0.00 67 1014.6
20260902144540 83 309 7.0 12.0 0.00 0.00 0.00 66 1015.8
20260902143036 82 281 5.0 11.0 0.00 0.00 0.00 67 1015.8
20260902141537 81 259 6.0 11.0 0.00 0.00 0.00 67 1015.9
20260902140035 81 285 5.0 10.0 0.00 0.00 0.00 69 1015.8
20260902140016 81 282 4.0 9.0 0.00 0.00 0.00 70 1014.6
20260902134543 80 266 4.0 11.0 0.00 0.00 0.00 71 1015.8
20260902133039 78 246 4.0 8.0 0.00 0.00 0.00 74 1015.8
20260902131541 77 269 3.0 7.0 0.00 0.00 0.00 75 1015.7
20260902130038 76 286 3.0 7.0 0.00 0.00 0.00 76 1015.6
20260902130030 77 284 4.0 6.0 0.00 0.00 0.00 76 1014.5
20260902124533 76 292 2.0 7.0 0.00 0.00 0.00 77 1015.4
20260902123034 75 277 3.0 7.0 0.00 0.00 0.00 78 1015.3
20260902121535 75 265 1.0 4.0 0.00 0.00 0.00 77 1015.2
20260902120033 75 267 1.0 6.0 0.00 0.00 0.00 77 1015.1
20260902120027 75 267 2.0 3.0 0.00 0.00 0.00 77 1014.1
20260902114533 74 251 2.0 4.0 0.00 0.00 0.00 78 1015.0
20260902113037 73 0 0.0 4.0 0.00 0.00 0.00 79 1014.9
20260902111534 73 0 0.0 3.0 0.00 0.00 0.00 80 1014.9
20260902110041 73 0 0.0 2.0 0.00 0.00 0.00 81 1014.9
20260902110018 73 265 0.0 2.0 0.00 0.00 0.00 82 1013.8
20260902104534 72 0 0.0 2.0 0.00 0.00 0.00 81 1014.9
20260902103034 72 0 0.0 3.0 0.00 0.00 0.00 81 1014.9
20260902101537 73 0 0.0 1.0 0.00 0.00 0.00 81 1014.6
20260902100034 73 257 0.0 1.0 0.00 0.00 0.00 82 1013.6
20260902094537 72 0 0.0 3.0 0.00 0.00 0.00 83 1014.5
20260902093038 72 0 0.0 3.0 0.00 0.00 0.00 86 1014.5
20260902091535 71 0 0.0 2.0 0.00 0.00 0.00 90 1014.5
20260902090045 71 269 0.0 0.0 0.00 0.00 0.00 90 1013.3
20260902090038 70 0 0.0 0.0 0.00 0.00 0.00 90 1014.3
20260902084539 70 0 0.0 0.0 0.00 0.00 0.00 89 1014.3
20260902083033 70 0 0.0 0.0 0.00 0.00 0.00 89 1014.1
20260902081533 71 0 0.0 1.0 0.00 0.00 0.00 89 1014.0
20260902080037 71 0 0.0 0.0 0.00 0.00 0.00 87 1014.0
20260902080022 71 269 0.0 0.0 0.00 0.00 0.00 88 1013.0
20260902074537 71 0 0.0 0.0 0.00 0.00 0.00 87 1014.0
20260902073036 71 0 0.0 0.0 0.00 0.00 0.00 84 1013.8
20260902071536 72 0 0.0 0.0 0.00 0.00 0.00 84 1013.9
20260902070036 73 269 0.0 0.0 0.00 0.00 0.00 83 1012.8
20260902064538 73 0 0.0 0.0 0.00 0.00 0.00 82 1014.0
20260902063034 74 0 0.0 0.0 0.00 0.00 0.00 79 1014.1
20260902061554 75 0 0.0 0.0 0.00 0.00 0.00 77 1014.1
20260902060040 76 0 0.0 0.0 0.00 0.00 0.00 76 1014.0
20260902060023 76 269 0.0 0.0 0.00 0.00 0.00 76 1013.1
20260902054540 77 0 0.0 0.0 0.00 0.00 0.00 72 1014.0
20260902053043 77 0 0.0 0.0 0.00 0.00 0.00 69 1014.0
20260902051533 78 0 0.0 1.0 0.00 0.00 0.00 69 1014.0
20260902050034 78 0 0.0 2.0 0.00 0.00 0.00 68 1013.9
20260902050023 78 269 0.0 2.0 0.00 0.00 0.00 69 1012.9
20260902044539 78 0 0.0 3.0 0.00 0.00 0.00 69 1013.9
20260902043033 78 0 0.0 1.0 0.00 0.00 0.00 70 1013.9
20260902041538 78 0 0.0 1.0 0.00 0.00 0.00 70 1013.9
20260902040043 78 242 0.0 1.0 0.00 0.00 0.00 72 1014.0
20260902040033 78 242 0.0 1.0 0.00 0.00 0.00 72 1012.9
20260902034539 76 0 0.0 2.0 0.00 0.00 0.00 76 1013.9
20260902033035 76 0 0.0 2.0 0.00 0.00 0.00 82 1014.0
20260902031543 76 0 0.0 0.0 0.00 0.00 0.00 82 1013.8
20260902030037 77 0 0.0 0.0 0.00 0.00 0.00 83 1013.7
20260902030028 77 252 0.0 0.0 0.00 0.00 0.00 83 1012.6
20260902024539 77 0 0.0 0.0 0.00 0.00 0.00 81 1013.6
20260902023041 78 0 0.0 0.0 0.00 0.00 0.00 78 1013.6
20260902021532 78 0 0.0 0.0 0.00 0.00 0.00 76 1013.6
20260902020038 79 0 0.0 0.0 0.00 0.00 0.00 73 1013.5
20260902020018 80 252 0.0 0.0 0.00 0.00 0.00 73 1012.3
20260902014534 80 0 0.0 0.0 0.00 0.00 0.00 72 1013.3